カタログに戻る

DELTA 1 R/B

CEP 1

運用中SSO
NORAD 4794·ROCKET BODY·🇺🇸 United States

打ち上げ Dec 11, 1970 から Vandenberg Space Force Base

Loading…

次のパス (今後24時間)

TLE

最新Source: Space-Track

元期: Sep 14, 2026, 10:09 UTC

1 04794U 70106B   26257.42307267 -.00000044  00000-0 -13811-4 0  9999
2 04794 101.3053 261.3278 0036772 171.4958 356.0821 12.53276070942595

AllMySatでDELTA 1 R/Bをリアルタイム追跡

Download on the App Store